Date,TemperatureHighF,TemperatureAvgF,TemperatureLowF,DewpointHighF,DewpointAvgF,DewpointLowF,HumidityHigh,HumidityAvg,HumidityLow,PressureMaxIn,PressureMinIn,WindSpeedMaxMPH,WindSpeedAvgMPH,GustSpeedMaxMPH,PrecipitationSumIn
2013-2-1,31.9,27.1,20.4,26.1,10.3,2.6,92,50,37,30.48,29.89,21,9,39,0.00
2013-2-2,30.8,24.3,18.3,26.4,12.8,4.1,91,63,42,30.48,30.10,13,4,29,0.00
2013-2-3,34.6,30.1,24.1,29.2,25.7,17.2,96,84,54,30.10,29.92,13,2,25,0.00
2013-2-4,34.8,30.8,24.6,22.1,15.9,11.5,62,54,43,30.19,29.98,14,4,25,0.00
2013-2-5,39.9,35.1,30.7,29.0,26.0,21.3,78,69,62,30.02,29.93,5,2,8,0.00
2013-2-6,44.7,38.1,32.5,31.1,27.1,22.2,86,66,48,30.44,30.02,17,5,29,0.00
2013-2-7,38.6,33.9,27.3,30.2,25.0,21.2,83,70,60,30.53,30.29,10,3,18,0.00
2013-2-8,42.2,37.4,32.5,39.2,32.8,22.1,95,84,58,30.29,29.81,22,8,41,0.27
2013-2-9,40.0,34.3,29.8,22.8,17.9,14.3,64,51,36,30.48,29.99,21,11,41,0.00
2013-2-10,45.4,34.3,22.4,27.6,17.4,11.2,82,52,25,30.57,30.32,10,3,18,0.00
2013-2-11,53.9,45.2,37.1,50.9,42.8,28.4,97,91,62,30.32,29.77,9,3,26,0.38
2013-2-12,56.9,49.3,39.8,37.8,29.0,25.7,65,46,31,30.07,29.88,16,6,29,0.00
2013-2-13,45.9,37.9,32.9,36.0,30.5,26.5,96,76,56,30.04,29.73,8,4,13,0.44
2013-2-14,50.7,40.3,34.1,34.0,29.6,22.5,96,68,39,30.09,29.85,11,3,18,0.00
2013-2-15,58.7,44.8,35.3,37.5,33.3,25.4,96,68,29,30.11,29.95,17,4,30,0.20
2013-2-16,38.1,35.9,32.5,35.4,29.5,16.6,96,79,50,30.10,29.90,11,5,21,0.04
2013-2-17,32.5,28.5,25.1,18.3,11.1,5.7,61,48,36,30.29,29.91,20,11,36,0.00
2013-2-18,41.2,31.0,21.9,16.8,9.0,4.9,54,40,27,30.47,30.25,15,6,26,0.00
2013-2-19,45.4,41.1,34.1,41.6,30.5,16.4,89,67,46,30.25,29.80,15,7,31,0.06
2013-2-20,39.7,33.0,25.8,23.0,14.9,8.7,53,47,39,30.25,29.92,17,10,32,0.00
2013-2-21,37.9,30.4,24.4,17.4,14.1,9.9,58,51,40,30.41,30.21,15,8,26,0.00
2013-2-22,33.3,31.6,30.3,30.5,23.1,16.7,94,71,54,30.47,30.30,9,3,15,0.02
2013-2-23,45.6,38.9,32.0,44.3,38.0,30.5,98,97,94,30.30,29.88,6,3,9,0.23
2013-2-24,50.4,42.5,34.1,42.1,31.5,19.6,96,68,38,30.19,29.87,19,9,31,0.00
2013-2-25,47.9,38.0,30.3,26.3,23.0,20.3,73,55,40,30.30,30.18,8,3,16,0.00
2013-2-26,45.5,37.7,29.8,44.6,33.4,24.7,97,85,69,30.31,29.68,19,7,35,0.70
2013-2-27,55.3,47.5,40.4,44.0,38.6,33.1,98,74,46,29.77,29.58,12,5,21,0.03
2013-2-28,47.4,43.7,41.3,38.3,30.3,23.3,86,60,39,29.81,29.71,14,6,24,0.05